SL-14 R/B, 22188

Orbit data source: Space-Track

SL-14 R/B, 22188 is space debris in LEO originally from a launch on Tue, 20 Oct 1992 UTC launched from the Plesetsk Missile And Space Complex (PKMTR). Debris objects in space refer to the collection of defunct objects orbiting the Earth. Examples of debris include non-operational satellites, rocket bodies, and fragments generated from explosions, collisions, or faulty payload assembly.

Loading next visibility...
Identifier
22188, 1992-068G
Orbit
LEO
Last TLE update
19 hours ago
Origin
Manufacturer
Yuzhnoe
Mission
Spacecraft
Bus & Motor
S5M, Unknown motor
Mass
1,600 kg wet, 1,600 kg dry
Launch date (UTC)
1992-10-20 (33 years ago)
Launch vehicle
Unknown
Launch site
Plesetsk Missile And Space Complex (PKMTR)
Object type
Payload
Rocket body
Debris
Shape & HBR
Cyl, 1.4 m
Radar Cross Section
7.351 m², Large (>1 m²)

Expand to show TLE details & history

TLE from 19 hours ago
0 SL-14 R/B
1 22188U 92068G   25199.36820940  .00000019  00000-0  50948-4 0  9994
2 22188  82.6009 304.6811 0046105 145.5871 276.5328 12.54915834499735
Epoch: 2025-07-18T08:50Z
TLE epoch observation values (Epoch: 2025-07-18T08:50:13.292Z)
Latitude
60.81156°
Longitude
-110.9198°
Altitude
1,450.393 km
Speed
7.144 km/s
True Right ascension
21h 12m 13s
True Declination
60° 40' 40"
Sunlit
Object was in daylight at epoch
Visualization orbit readout
Latitude
13.23093°
Longitude
-123.04733°
Altitude
1,469.29 km
Speed
7.119 km/s
Apparent Right ascension
23h 01m 33s
Apparent Declination
-19° 14' 10"
Sunlit
Object is in full shadow
Visualization observer readout
Local Sidereal Time
16:31:10
Azimuth
100.45° ESE
Elevation
-17.886°
Doppler factor
1
Orbital elements
Apogee altitude
1,477.382 km
Perigee altitude
1,405.279 km
Semi-major axis
7,819.468 km
Eccentricity
0.00461
Inclination
82.6009°
RAAN
304.6811°
Arg. of periapsis
145.5871°
True anomaly
276.00757°
Mean anomaly
276.5328°
Eccentric anomaly
276.27022°
Mean motion
3.1389 °/min
Orbital period
114.69 mins
BSTAR
0.000050948
Loading maneuver chart data...
Loading SW <> Apogee altitude chart data...
Loading historical data...
Loading historical data...
Loading historical data...
Loading historical data...
Loading historical data...
Loading historical data...
Loading historical data...
|